Weather in Travnoye

Russia / Kurgan Oblast     55°34′30″N   66°50′50″E
temp.,
°C
wind,
m/s
gust,
m/s
humid.,
%
clouds,
%
prec.,
mm/h
press.,
hPa
HPBL,
m
25 may, wed
wed2523:00+18sse4455100 0.0 101238
02:00+15sse485513 0.0 101294
05:00+14sse4957100 0.0 1012141
08:00+19sse51249100 0.0 1012296
11:00+24sse71239100 0.0 1012722
14:00+26sse81036100 0.0 10121401
17:00+25sse61038100 0.0 10111294
20:00+21se445213 0.0 101048
26 may, thu
thu2623:00+18se495664 0.0 1010131
02:00+18sse41354100 0.0 1010265
05:00+16se376397 0.0 1010102
08:00+21se475064 0.0 1009359
11:00+26se5735100 0.0 10081133
14:00+29se810285 0.0 10062355
17:00+28e81333100 0.0 1002781
20:00+16wnw4591100 5.6 1005139
27 may, fri
fri2723:00+17nw3487100 7.4 1002122
02:00+14nne589513 2.4 1001178
05:00+14wnw3495100 2.8 1000268
08:00+10nw91393100 1.7 1003622
11:00+9wnw91487100 1.8 1008771
14:00+13wnw81268100 0.0 10111300
17:00+16wnw810535 0.0 10121806
20:00+13wnw48685 0.0 1013181
28 may, sat
sat2823:00+10w367655 0.0 101598
02:00+9w36795 0.0 101599
05:00+9w35805 0.0 101676
08:00+14w456153 0.0 1016394
11:00+18w444591 0.0 10161530
14:00+20w454597 0.0 10162004
17:00+19w5551100 0.0 10161269
20:00+16w3367100 0.0 101742
29 may, sun
sun2923:00+14w226886 0.0 101918
02:00+12w227364 0.0 101922
05:00+12w227989 0.0 102024
08:00+17wnw34690 0.0 1021414
11:00+20w34550 0.0 10211404
14:00+22nw454869 0.0 10202034
17:00+23nnw354624 0.0 10201923
20:00+19nne3466100 0.0 102167